Weather in Snopa

Russia / Nenets Autonomous Okrug     66°44′25″N   47°00′52″E
temp.,
°C
wind,
m/s
gust,
m/s
humid.,
%
clouds,
%
prec.,
mm/h
press.,
hPa
HPBL,
m
1 march, mon
mon100:00−4sw91594100 0.4 1004585
03:00−4sw101594100 1.3 1001552
06:00−2sw101596100 1.3 996564
09:00−1sw111796100 3.6 991627
12:00+1wnw1015100100 3.1 989477
15:000w8129493 3.1 989335
18:00−1w61196100 0.1 988353
21:00−4w699592 0.1 987118
2 march, tue
tue200:00−5w589781 0.0 986126
03:00−3w6109591 0.3 987266
06:00−8wsw6894100 0.0 986121
09:00−6w6996100 0.6 988272
12:00−2nnw5984100 0.8 989443
15:00−6wnw6108583 0.8 991150
18:00−6w8138533 0.0 990272
21:00−5w10159443 0.3 989540
3 march, wed
wed300:00−4w101495100 0.4 987516
03:00−10wnw91492100 1.3 988412
06:00−10wsw4696100 0.6 989182
09:00−10nne6109598 0.9 991298
12:00−14n91294100 0.2 994353
15:00−15n71094100 0.4 996391
18:00−17n5896100 0.2 997308
21:00−18n469699 0.3 997235
4 march, thu
thu400:00−19n3598100 0.1 996127
03:00−19n3697100 0.4 996219
06:00−19n349895 0.1 99578
09:00−17n459697 0.3 995268
12:00−15ne5793100 0.1 995397
15:00−16ne6892100 0.3 996396
18:00−17ne699698 0.1 997266
21:00−19ne699698 0.3 998288
5 march, fri
fri500:00−21nne699699 0.1 999256
03:00−23nne589798 0.1 1001202
06:00−23nne589896 0.1 1002191
09:00−23nne469897 0.1 1004165
12:00−22n3597100 0.0 1005364
15:00−23nnw3397100 0.1 100664
18:00−24nnw22100100 0.0 100722
21:00−24n22100100 0.1 100848